When you browse on this site, cookies collect data to enhance your experience and personalize the content and advertising you see.
Visit our Privacy Policy to learn more. By continuing to use the site, you agree to this use of cookies and data.
  • en Suisse
  • Liste des pays
  • À 7 jours
  • Température de l'eau
  • Carte satellitaire
  • Carte météo
  • Widgets météo
  • user-avatar
    Se connecter

    Météo par heure à Cumaná

    Ce jour, 24 Juillet, Mercredi

    Heure Température Précipitation Vent Pression Humidité
    00:00 +25°C° 0 mm 4 m/s 753 mmHg 87%
    01:00 +25°C° 0 mm 4 m/s 753 mmHg 85%
    02:00 +25°C° 0 mm 4 m/s 752 mmHg 82%
    03:00 +25°C° 0 mm 4 m/s 752 mmHg 82%
    04:00 +25°C° 0 mm 3 m/s 752 mmHg 83%
    05:00 +25°C° 0 mm 3 m/s 752 mmHg 83%
    06:00 +27°C° 0 mm 3 m/s 752 mmHg 79%
    07:00 +28°C° 0 mm 3 m/s 752 mmHg 76%
    08:00 +30°C° 0 mm 3 m/s 753 mmHg 72%
    09:00 +31°C° 0 mm 3 m/s 753 mmHg 68%
    10:00 +33°C° 0 mm 3 m/s 753 mmHg 64%
    11:00 +35°C° 0 mm 4 m/s 753 mmHg 60%
    12:00 +34°C° 0.3 mm 4 m/s 753 mmHg 66%
    13:00 +33°C° 0.3 mm 4 m/s 752 mmHg 73%
    14:00 +32°C° 0.3 mm 4 m/s 751 mmHg 80%
    15:00 +32°C° 0.2 mm 4 m/s 751 mmHg 82%
    16:00 +30°C° 0.2 mm 5 m/s 751 mmHg 84%
    17:00 +30°C° 0.2 mm 5 m/s 750 mmHg 86%
    18:00 +28°C° 0 mm 5 m/s 751 mmHg 90%
    19:00 +27°C° 0 mm 5 m/s 751 mmHg 94%
    20:00 +26°C° 0 mm 5 m/s 751 mmHg 97%
    21:00 +26°C° 0 mm 5 m/s 752 mmHg 97%
    22:00 +25°C° 0 mm 4 m/s 752 mmHg 96%
    23:00 +25°C° 0 mm 4 m/s 753 mmHg 95%

    Demain, 25 Juillet, Jeudi

    Heure Température Précipitation Vent Pression Humidité
    00:00 +23°C° 0 mm 4 m/s 752 mmHg 93%
    01:00 +23°C° 0 mm 4 m/s 752 mmHg 90%
    02:00 +22°C° 0 mm 4 m/s 751 mmHg 88%
    03:00 +22°C° 0 mm 3 m/s 751 mmHg 87%
    04:00 +22°C° 0 mm 3 m/s 751 mmHg 87%
    05:00 +23°C° 0 mm 2 m/s 751 mmHg 86%
    06:00 +25°C° 0 mm 2 m/s 752 mmHg 82%
    07:00 +27°C° 0 mm 2 m/s 752 mmHg 78%
    08:00 +28°C° 0 mm 1 m/s 752 mmHg 74%
    09:00 +30°C° 0 mm 2 m/s 753 mmHg 68%
    10:00 +31°C° 0 mm 2 m/s 753 mmHg 62%
    11:00 +34°C° 0 mm 2 m/s 753 mmHg 56%
    12:00 +34°C° 0 mm 2 m/s 752 mmHg 60%
    13:00 +32°C° 0 mm 2 m/s 752 mmHg 63%
    14:00 +32°C° 0 mm 2 m/s 751 mmHg 67%
    15:00 +31°C° 0.1 mm 3 m/s 751 mmHg 73%
    16:00 +32°C° 0.1 mm 4 m/s 751 mmHg 78%
    17:00 +30°C° 0.1 mm 5 m/s 750 mmHg 84%
    18:00 +29°C° 0.1 mm 5 m/s 751 mmHg 88%
    19:00 +27°C° 0.1 mm 5 m/s 751 mmHg 92%
    20:00 +26°C° 0.1 mm 5 m/s 752 mmHg 97%
    21:00 +26°C° 0 mm 5 m/s 752 mmHg 95%
    22:00 +26°C° 0 mm 5 m/s 753 mmHg 93%
    23:00 +25°C° 0 mm 4 m/s 753 mmHg 92%

    Après-demain, 26 Juillet, Vendredi

    Heure Température Précipitation Vent Pression Humidité
    00:00 +25°C° 0 mm 4 m/s 753 mmHg 89%
    01:00 +25°C° 0 mm 4 m/s 752 mmHg 87%
    02:00 +25°C° 0 mm 4 m/s 752 mmHg 85%
    03:00 +25°C° 0 mm 3 m/s 752 mmHg 84%
    04:00 +25°C° 0 mm 3 m/s 752 mmHg 82%
    05:00 +25°C° 0 mm 3 m/s 752 mmHg 81%
    06:00 +26°C° 0 mm 2 m/s 752 mmHg 77%
    07:00 +28°C° 0 mm 2 m/s 753 mmHg 74%
    08:00 +30°C° 0 mm 2 m/s 753 mmHg 70%
    09:00 +31°C° 0.1 mm 2 m/s 753 mmHg 67%
    10:00 +33°C° 0.1 mm 3 m/s 753 mmHg 63%
    11:00 +35°C° 0.1 mm 3 m/s 753 mmHg 59%
    12:00 +34°C° 0.5 mm 4 m/s 753 mmHg 68%
    13:00 +33°C° 0.5 mm 4 m/s 752 mmHg 76%
    14:00 +32°C° 0.5 mm 4 m/s 752 mmHg 85%
    15:00 +30°C° 0.3 mm 5 m/s 751 mmHg 87%
    16:00 +30°C° 0.3 mm 6 m/s 751 mmHg 89%
    17:00 +29°C° 0.3 mm 6 m/s 751 mmHg 91%
    18:00 +28°C° 0 mm 6 m/s 752 mmHg 93%
    19:00 +28°C° 0 mm 6 m/s 752 mmHg 96%
    20:00 +27°C° 0 mm 5 m/s 752 mmHg 98%
    21:00 +26°C° 0 mm 5 m/s 753 mmHg 98%
    22:00 +26°C° 0 mm 4 m/s 753 mmHg 97%
    23:00 +26°C° 0 mm 4 m/s 754 mmHg 97%

    27 Juillet, Samedi

    Heure Température Précipitation Vent Pression Humidité
    00:00 +25°C° 0 mm 4 m/s 753 mmHg 97%
    01:00 +25°C° 0 mm 4 m/s 753 mmHg 96%
    02:00 +25°C° 0 mm 4 m/s 752 mmHg 96%
    03:00 +25°C° 0 mm 3 m/s 752 mmHg 95%
    04:00 +24°C° 0 mm 3 m/s 752 mmHg 94%
    05:00 +24°C° 0 mm 3 m/s 752 mmHg 94%
    06:00 +25°C° 0 mm 3 m/s 753 mmHg 91%
    07:00 +27°C° 0 mm 3 m/s 753 mmHg 88%
    08:00 +28°C° 0 mm 2 m/s 753 mmHg 85%
    09:00 +30°C° 0 mm 3 m/s 753 mmHg 75%
    10:00 +31°C° 0 mm 3 m/s 754 mmHg 66%
    11:00 +34°C° 0 mm 4 m/s 754 mmHg 57%
    12:00 +33°C° 0.1 mm 4 m/s 753 mmHg 62%
    13:00 +33°C° 0.1 mm 5 m/s 752 mmHg 66%
    14:00 +32°C° 0.1 mm 5 m/s 752 mmHg 71%
    15:00 +32°C° 0.3 mm 5 m/s 751 mmHg 76%
    16:00 +30°C° 0.3 mm 5 m/s 751 mmHg 80%
    17:00 +29°C° 0.3 mm 5 m/s 751 mmHg 85%
    18:00 +29°C° 0.1 mm 5 m/s 751 mmHg 89%
    19:00 +28°C° 0.1 mm 4 m/s 752 mmHg 92%
    20:00 +27°C° 0.1 mm 4 m/s 752 mmHg 96%
    21:00 +27°C° 0.3 mm 3 m/s 753 mmHg 96%
    22:00 +26°C° 0.3 mm 3 m/s 753 mmHg 96%
    23:00 +26°C° 0.3 mm 3 m/s 753 mmHg 96%

    28 Juillet, Dimanche

    Heure Température Précipitation Vent Pression Humidité
    00:00 +26°C° 0.2 mm 2 m/s 753 mmHg 96%
    01:00 +26°C° 0.2 mm 2 m/s 753 mmHg 96%
    02:00 +26°C° 0.2 mm 1 m/s 752 mmHg 96%
    03:00 +26°C° 0.2 mm 1 m/s 752 mmHg 96%
    04:00 +26°C° 0.2 mm 1 m/s 752 mmHg 95%
    05:00 +26°C° 0.2 mm 1 m/s 752 mmHg 95%
    06:00 +26°C° 0.3 mm 1 m/s 752 mmHg 93%
    07:00 +27°C° 0.3 mm 1 m/s 753 mmHg 91%
    08:00 +28°C° 0.3 mm 1 m/s 753 mmHg 89%
    09:00 +29°C° 0.6 mm 1 m/s 753 mmHg 88%
    10:00 +30°C° 0.6 mm 2 m/s 753 mmHg 87%
    11:00 +30°C° 0.6 mm 3 m/s 753 mmHg 86%
    12:00 +30°C° 1.1 mm 3 m/s 753 mmHg 88%
    13:00 +30°C° 1.1 mm 3 m/s 752 mmHg 90%
    14:00 +29°C° 1.1 mm 3 m/s 752 mmHg 91%
    15:00 +29°C° 0.9 mm 3 m/s 751 mmHg 93%
    16:00 +28°C° 0.9 mm 3 m/s 751 mmHg 95%
    17:00 +28°C° 0.9 mm 3 m/s 751 mmHg 96%
    18:00 +27°C° 0.7 mm 2 m/s 751 mmHg 97%
    19:00 +27°C° 0.7 mm 1 m/s 752 mmHg 97%
    20:00 +26°C° 0.7 mm 1 m/s 752 mmHg 97%
    21:00 +26°C° 0.1 mm 1 m/s 752 mmHg 97%
    22:00 +26°C° 0.1 mm 1 m/s 752 mmHg 97%
    23:00 +26°C° 0.1 mm 1 m/s 753 mmHg 96%

    29 Juillet, Lundi

    Heure Température Précipitation Vent Pression Humidité
    00:00 +25°C° 0 mm 1 m/s 752 mmHg 95%
    01:00 +25°C° 0 mm 1 m/s 752 mmHg 94%
    02:00 +25°C° 0 mm 1 m/s 752 mmHg 94%
    03:00 +25°C° 0.2 mm 1 m/s 752 mmHg 94%
    04:00 +25°C° 0.2 mm 1 m/s 752 mmHg 94%
    05:00 +25°C° 0.2 mm 1 m/s 752 mmHg 94%
    06:00 +26°C° 0.1 mm 1 m/s 752 mmHg 92%
    07:00 +27°C° 0.1 mm 1 m/s 752 mmHg 90%
    08:00 +26°C° 0.1 mm 0 m/s 753 mmHg 88%
    09:00 +29°C° 0.1 mm 1 m/s 753 mmHg 83%
    10:00 +31°C° 0.1 mm 1 m/s 753 mmHg 77%
    11:00 +34°C° 0.1 mm 2 m/s 753 mmHg 72%
    12:00 +32°C° 0.7 mm 2 m/s 752 mmHg 77%
    13:00 +31°C° 0.7 mm 2 m/s 752 mmHg 82%
    14:00 +30°C° 0.7 mm 3 m/s 751 mmHg 88%
    15:00 +30°C° 0.6 mm 2 m/s 751 mmHg 90%
    16:00 +29°C° 0.6 mm 2 m/s 750 mmHg 91%
    17:00 +29°C° 0.6 mm 1 m/s 750 mmHg 93%
    18:00 +28°C° 0.1 mm 1 m/s 750 mmHg 95%
    19:00 +27°C° 0.1 mm 1 m/s 751 mmHg 96%
    20:00 +26°C° 0.1 mm 1 m/s 751 mmHg 98%
    21:00 +26°C° 0 mm 1 m/s 752 mmHg 97%
    22:00 +26°C° 0 mm 1 m/s 752 mmHg 96%
    23:00 +25°C° 0 mm 2 m/s 753 mmHg 95%
    Voir plus